"Pseudo-MPEC" for P10OPmT

Created 2019 Jun 14 11:08:41 UT using Find_Orb

Click here for an explanation of pseudo-MPECs

 
 Astrometry: 
     P10OPmT  C2019 06 08bN`OAstrometry)=Fb:aredacted;8GclickJVWPFy*^DGn1D?^`F51
     P10OPmT  C2019 06 08[tc[RlRxTl:mmdIJnI#n.;9/herec$-\=form7p[LNX\J:)rXSvVF51
     P10OPmT  C2019 06 08TuohexplanationNYF[oc)3!SI'Uw`U3dJ=\\JYc38y\MoLbejkRF51

Station data:
(F51) Pan-STARRS 1, Haleakala  (N20.707235 W156.255910)  US/Hawaii.
   Observers N. Primak, A. Schultz, S. Watters, J. Thiel, T. Goggia. Measurer
   PS1 Science Consortium. 1.8-m Ritchey-Chrétien + CCD.

Orbital elements:  P10OPmT
   Perihelion 2020 Jan 4.929725 +/- 221 TT = 22:18:48 (JD 2458853.429725)
Epoch 2019 Jun  8.0 TT = JDT 2458642.5   Earth MOID: 0.5351   AutoNEOCP
M 279.18597148 +/- 70               (J2000 ecliptic)
n   0.38313247 +/- 0.265            Peri.  101.62637 +/- 80
a   1.87745730 +/- 0.866            Node   258.03570 +/- 39
e   0.2579833 +/- 0.267             Incl.   20.04059 +/- 30
P   2.57/939.61d           H 19.9   G  0.15   U 11.9  SR
q 1.39310458 +/- 0.807    Q 2.36181002 +/- 33.2
From 3 observations 2019 June 8 (29.8 min); mean residual 0".27
Residuals in arcseconds: 
190608 F51  .20-  .17+    190608 F51  .40+  .35-    190608 F51  .20-  .17+    

Ephemerides (geocentric):
Date (UTC) HH   RA              Dec         delta   r     elong  mag " sig PA
---- -- -- --  -------------   -----------  ------ ------ -----  --- ---- ---
2019 06 14 11  15 48 23.070   -24 32 27.85  .92688 1.9037 157.0 21.8 3220 147
2019 06 14 12  15 48 20.196   -24 31 38.58  .92691 1.9035 157.0 21.8 3267 146
2019 06 14 13  15 48 17.326   -24 30 49.32  .92694 1.9034 156.9 21.8 3317 144
2019 06 14 14  15 48 14.459   -24 30 00.06  .92698 1.9033 156.9 21.8 3369 143
2019 06 14 15  15 48 11.596   -24 29 10.81  .92701 1.9031 156.8 21.8 3424 141
2019 06 14 16  15 48 08.736   -24 28 21.55  .92705 1.9030 156.8 21.8 3481 140
2019 06 14 17  15 48 05.880   -24 27 32.30  .92709 1.9029 156.7 21.8 3542 138
2019 06 14 18  15 48 03.027   -24 26 43.05  .92712 1.9027 156.7 21.8 3606 137
2019 06 14 19  15 48 00.178   -24 25 53.80  .92716 1.9026 156.6 21.8 3673 135
2019 06 14 20  15 47 57.333   -24 25 04.55  .92720 1.9025 156.6 21.8 3744 134
2019 06 14 21  15 47 54.491   -24 24 15.31  .92723 1.9023 156.5 21.8 3818 133
2019 06 14 22  15 47 51.652   -24 23 26.07  .92727 1.9022 156.5 21.9 3896 131
2019 06 14 23  15 47 48.818   -24 22 36.83  .92731 1.9021 156.4 21.9 3978 130
2019 06 15 00  15 47 45.987   -24 21 47.59  .92735 1.9019 156.4 21.9 4064 129
2019 06 15 01  15 47 43.159   -24 20 58.36  .92739 1.9018 156.3 21.9 4155 128
2019 06 15 02  15 47 40.335   -24 20 09.13  .92743 1.9017 156.3 21.9 4250 127
2019 06 15 03  15 47 37.515   -24 19 19.90  .92747 1.9015 156.2 21.9 4349 125
2019 06 15 04  15 47 34.698   -24 18 30.67  .92751 1.9014 156.2 21.9 4454 124
2019 06 15 05  15 47 31.885   -24 17 41.45  .92755 1.9013 156.1 21.9 4564 123
2019 06 15 06  15 47 29.076   -24 16 52.23  .92759 1.9011 156.1 21.9 4679 123
2019 06 15 07  15 47 26.270   -24 16 03.02  .92763 1.9010 156.0 21.9 4800 122
2019 06 15 08  15 47 23.468   -24 15 13.80  .92767 1.9009 156.0 21.9 4927 121
2019 06 15 09  15 47 20.669   -24 14 24.60  .92772 1.9007 155.9 21.9 5060 120
2019 06 15 10  15 47 17.874   -24 13 35.39  .92776 1.9006 155.9 21.9 5200 119
2019 06 15 11  15 47 15.083   -24 12 46.19  .92780 1.9005 155.8 21.9 5347 119
2019 06 15 12  15 47 12.296   -24 11 56.99  .92784 1.9003 155.8 21.9 5502 118
2019 06 15 13  15 47 09.512   -24 11 07.80  .92789 1.9002 155.7 21.9 5664 117
2019 06 15 14  15 47 06.732   -24 10 18.61  .92793 1.9001 155.7 21.9 5836 117
2019 06 15 15  15 47 03.955   -24 09 29.42  .92798 1.8999 155.6 21.9 6016 116
2019 06 15 16  15 47 01.182   -24 08 40.24  .92802 1.8998 155.6 21.9 6207 116
2019 06 15 17  15 46 58.413   -24 07 51.06  .92807 1.8997 155.5 21.9 6408 115
2019 06 15 18  15 46 55.648   -24 07 01.89  .92811 1.8995 155.5 21.9 6621 115
2019 06 15 19  15 46 52.886   -24 06 12.72  .92816 1.8994 155.4 21.9 6846 114
2019 06 15 20  15 46 50.128   -24 05 23.55  .92821 1.8993 155.4 21.9 7085 114
2019 06 15 21  15 46 47.373   -24 04 34.39  .92825 1.8991 155.3 21.9 7338 114
2019 06 15 22  15 46 44.623   -24 03 45.23  .92830 1.8990 155.2 21.9 7606 113
2019 06 15 23  15 46 41.876   -24 02 56.08  .92835 1.8989 155.2 21.9 7892 113
2019 06 16 00  15 46 39.133   -24 02 06.93  .92840 1.8987 155.1 21.9 8196 112
2019 06 16 01  15 46 36.393   -24 01 17.79  .92845 1.8986 155.1 21.9 8520 112
2019 06 16 02  15 46 33.658   -24 00 28.66  .92850 1.8985 155.0 21.9 8867 112
2019 06 16 03  15 46 30.926   -23 59 39.52  .92854 1.8983 155.0 21.9 9237 111
2019 06 16 04  15 46 28.197   -23 58 50.40  .92859 1.8982 154.9 21.9 9634 111
2019 06 16 05  15 46 25.473   -23 58 01.27  .92864 1.8981 154.9 21.9 168' 111
2019 06 16 06  15 46 22.752   -23 57 12.16  .92870 1.8979 154.8 21.9 175' 111
2019 06 16 07  15 46 20.035   -23 56 23.05  .92875 1.8978 154.8 21.9 184' 110
2019 06 16 08  15 46 17.322   -23 55 33.94  .92880 1.8977 154.7 21.9 192' 110
2019 06 16 09  15 46 14.612   -23 54 44.84  .92885 1.8975 154.7 21.9 202' 110
2019 06 16 10  15 46 11.907   -23 53 55.75  .92890 1.8974 154.6 21.9 212' 110